Regional Weather Roundup
Issued by NWS Green Bay, WI

Home | Current Version | Previous Version | Graphics & Text | Print | Product List | Glossary Off
Versions: 1 2 3 4 5 6 7 8 9 10 11 12 13 14 15 16 17 18 19 20 21 22 23 24 25 26 27 28 29 30 31 32 33 34 35 36 37 38 39 40 41 42 43 44 45 46 47 48 49 50

399
ASUS43 KGRB 190200
RWRGRB

NORTH-CENTRAL AND NORTHEAST WISCONSIN REGIONAL WEATHER ROUNDUP
NATIONAL WEATHER SERVICE GREEN BAY WI
900 PM CDT WED OCT 18 2017

WIZ005-009-010>012-018-019-190300-
NORTH CENTRAL WISCONSIN

CITY           SKY/WX    TMP DP  RH WIND       PRES   REMARKS
IRONWOOD       CLEAR     55  24  30 W12       29.80R
MANITOWISH WTR NOT AVBL
ARBOR VITAE    NOT AVBL
EAGLE RIVER    NOT AVBL
LAND O LAKES   NOT AVBL
RHINELANDER    CLEAR     60  45  57 W13       29.83R
PHILLIPS       NOT AVBL
ANTIGO         NOT AVBL
TOMAHAWK       NOT AVBL
MERRILL        NOT AVBL
$$

WIZ013-073-190300-
NORTHEAST WISCONSIN

CITY           SKY/WX    TMP DP  RH WIND       PRES   REMARKS
IRON MOUNTAIN  CLEAR     65  46  50 SW12G21   29.76R
MARINETTE      CLEAR     64  47  53 SW12      29.81S
$$

WIZ017-030-035>037-045-190300-
CENTRAL WISCONSIN

CITY           SKY/WX    TMP DP  RH WIND       PRES   REMARKS
MEDFORD        NOT AVBL
WAUSAU         CLEAR     62  46  55 SW16G26   29.84S
MOSINEE        PTCLDY    55  48  76 SW8       29.88R
MARSHFIELD     CLEAR     58  46  64 SW10      29.88R
WISC RAPIDS    CLEAR     61  48  62 SW9       29.90R
STEVENS POINT  NOT AVBL
WAUPACA        NOT AVBL
SHAWANO        NOT AVBL
CLINTONVILLE   NOT AVBL
WAUTOMA        CLEAR     62  47  57 SW8         N/A
$$

WIZ038-039-048-051-190300-
FOX VALLEY

CITY           SKY/WX    TMP DP  RH WIND       PRES   REMARKS
NWS GREEN BAY  CLEAR     63  46  54 SW15      29.86F
APPLETON       PTCLDY    61  39  44 SW16G23   29.87F
OSHKOSH        CLEAR     61  45  55 SW15G22   29.90F
FOND DU LAC    CLEAR     63  42  46 SW10G20   29.93S
$$

WIZ022-050-052-190300-
EAST CENTRAL WISCONSIN

CITY           SKY/WX    TMP DP  RH WIND       PRES   REMARKS
EPHRAIM        NOT AVBL
WASHINGTON ISL NOT AVBL
STURGEON BAY   CLEAR     63  45  51 SW18      29.83F
MANITOWOC      CLEAR     64  44  48 SW14G21   29.90F
SHEBOYGAN      CLEAR     62  45  53 SW15      29.93S
$$

LMZ563-521-522-541>543-190300-
LAKESHORE

STATION/POSITION TIME  TEMP    WIND        PRES    VSBY  WAVE
                       AIR SEA DIR/SP/G                  HT/PER
                 (UTC) (F)     (DEG/KT/KT) (MB)    (MI)  (FT/S)
SHEBOYGAN LKSHOR 0100   65     200/ 17/ 19 1013.2R
KEWAUNEE LKSHORE 0124   59     190/  9/ 10 1011.1
NORTHPORT PIER   0140   60     170/  7/ 16 1009.1F
N MID LAKE BUOY  0050   62 59  190/ 27/ 33 1009.5F        14/ 9
S GREEN BAY BUOY 0130   63 58  200/ 19/ 25 1010.0F
SISTER BAY LKSHO 0104   61     180/ 17/ 20   N/A
MENOMINEE LKSHOR 0124   64     200/ 16/ 22 1009.0
$$




USA.gov is the U.S. government's official web portal to all federal, state and local government web resources and services.